Meteo Giornale » Osservazioni meteo Stati Uniti (USA) » Fort Drum-Wheeler-Sack
ore: 06:55 - Osservazioni Meteo Fort Drum-Wheeler-Sack
Lat. 44° 3' N Lon. 75° 44' W Alt. 207 metri s.l.m.
18 °C
Pioviggine
Temp. 24 Ore
18 °C
24 °C
Est/Sud-Est
13 Km/h
Dew point 17 °C
Umidità 93 %
Visibilità 10 Km
Il sole sorge alle ore 06:26
Il sole tramonta alle ore 19:39
| Data e Ora | Cielo e Fenomeni | T °C | DP °C | Um. % | Pres. hPa | Vis. km | Vento km/h | |
|---|---|---|---|---|---|---|---|---|
| Oggi h: 06:55 | Pioviggine | 18 | 17 | 93 | 1014 | 10 | E/SE 13 | |
| Oggi h: 05:56 | Pioviggine | 18 | 17 | 93 | 1014 | 10 | E 9.3 | |
| Oggi h: 05:55 | Pioviggine | 18 | 17 | 93 | 1014 | 10 | E 11.1 | |
| Oggi h: 05:51 | Pioviggine | 18 | 17 | 93 | 1014 | 10 | E/SE 11.1 | |
| Oggi h: 05:15 | Pioggia Foschia | 18 | 17 | 93 | 1014 | 5 | SE 9.3 | |
| Oggi h: 05:05 | Pioggia Foschia | 18 | 17 | 93 | 1014 | 3 | E 7.4 | |
| Oggi h: 04:55 | Pioggia Foschia | 18 | 17 | 93 | 1014 | 8 | E 9.3 | |
| Oggi h: 04:16 | Pioggia Foschia | 18 | 17 | 93 | 1014 | 8 | E 11.1 | |
| Oggi h: 04:06 | Pioggia Foschia | 18 | 17 | 93 | 1014 | 10 | E 11.1 | |
| Oggi h: 03:56 | Pioggia Foschia | 18 | 17 | 93 | 1014 | 6 | E 7.4 | |
| Oggi h: 03:55 | Pioggia Foschia | 18 | 17 | 93 | 1014 | 6 | E 7.4 | |
| Oggi h: 03:50 | Pioggia Foschia | 18 | 17 | 93 | 1014 | 6 | E 13 | |
| Oggi h: 03:40 | Pioggia Foschia | 18 | 17 | 93 | 1014 | 5 | N 0 | |
| Oggi h: 03:30 | Pioggia | 19 | 17 | 88 | 1015 | 14 | N 5.5 | |
| Oggi h: 03:05 | Pioggia Foschia | 18 | 17 | 93 | 1014 | 10 | E/SE 13 | |
| Oggi h: 02:55 | Pioggia Foschia | 18 | 17 | 93 | 1014 | 8 | E/SE 14.8 | |
| Oggi h: 02:53 | Pioggia Foschia | 18 | 17 | 93 | 1014 | 8 | E/SE 14.8 | |
| Oggi h: 02:13 | Pioggia | 19 | 17 | 88 | 1015 | 10 | N 0 | |
| Oggi h: 02:05 | Coperto | 19 | 17 | 88 | 1015 | 10 | N 0 | |
| Oggi h: 01:55 | Coperto | 19 | 17 | 88 | 1015 | 10 | SE 9.3 | |
| Oggi h: 01:31 | Molto Nuvoloso | 18 | 17 | 93 | 1015 | 10 | SE 14.8 | |
| Oggi h: 01:21 | Pioviggine | 19 | 17 | 88 | 1015 | 10 | SE 14.8 | |
| Oggi h: 00:55 | Nuvoloso | 19 | 17 | 88 | 1015 | 10 | SE 13 | |
| Ieri h: 23:55 | Molto Nuvoloso | 19 | 17 | 88 | 1015 | 10 | S/SE 13 | |
| Ieri h: 22:55 | Poco Nuvoloso | 19 | 17 | 88 | 1016 | 10 | SE 9.3 | |
| Ieri h: 21:55 | Coperto | 20 | 17 | 82 | 1016 | 10 | S/SE 11.1 | |
| Ieri h: 20:55 | Coperto | 21 | 17 | 77 | 1016 | 10 | SE 11.1 | |
| Ieri h: 19:55 | Molto Nuvoloso | 21 | 17 | 77 | 1016 | 10 | SE 7.4 | |
| Ieri h: 18:55 | Molto Nuvoloso | 22 | 16 | 68 | 1016 | 10 | S 9.3 | |
| Ieri h: 17:55 | Coperto | 23 | 16 | 64 | 1016 | 10 | S 9.3 | |
| Ieri h: 17:05 | Coperto | 23 | 16 | 64 | 1017 | 10 | S/SO 11.1 | |
| Ieri h: 16:55 | Coperto | 23 | 16 | 64 | 1017 | 10 | SO 9.3 | |
| Ieri h: 16:25 | Molto Nuvoloso | 24 | 17 | 64 | 1017 | 10 | S 11.1 | |
| Ieri h: 16:15 | Coperto | 24 | 17 | 64 | 1017 | 10 | S/SO 11.1 | |
| Ieri h: 15:55 | Coperto | 23 | 17 | 68 | 1017 | 10 | S 7.4 | |
| Ieri h: 14:55 | Molto Nuvoloso | 23 | 18 | 73 | 1017 | 10 | E/SE 7.4 | |
| Ieri h: 13:58 | Coperto | 21 | 17 | 77 | 1018 | 10 | N 0 | |
| Ieri h: 13:55 | Pioviggine | 21 | 18 | 82 | 1018 | 10 | N 0 | |
| Ieri h: 13:49 | Pioggia | 21 | 16 | 73 | 1018 | 14 | N 5.5 | |
| Ieri h: 13:39 | Pioviggine | 22 | 18 | 78 | 1018 | 10 | S 9.3 | |
| Ieri h: 12:55 | Coperto | 22 | 18 | 78 | 1018 | 10 | N 0 | |
| Ieri h: 11:55 | Coperto | 21 | 18 | 82 | 1019 | 10 | N 5.5 | |
| Ieri h: 11:43 | Coperto | 21 | 18 | 82 | 1019 | 10 | S 7.4 | |
| Ieri h: 11:22 | Pioggia | 22 | 17 | 73 | 1018 | 11 | S 11.1 | |
| Ieri h: 11:15 | Coperto | 22 | 17 | 73 | 1018 | 10 | S/SE 11.1 | |
| Ieri h: 10:55 | Molto Nuvoloso | 23 | 17 | 68 | 1018 | 10 | S/SE 11.1 | |
| Ieri h: 10:45 | Coperto | 22 | 17 | 73 | 1018 | 10 | S/SE 9.3 | |
| Ieri h: 09:55 | Sereno | 22 | 17 | 73 | 1018 | 10 | SE 16.7 | |
| Ieri h: 09:34 | Nuvoloso | 21 | 17 | 77 | 1018 | 14 | S/SE 11.1 | |
| Ieri h: 08:55 | Nuvoloso | 19 | 17 | 88 | 1019 | 11 | S/SE 11.1 | |
| Ieri h: 08:38 | Nuvoloso | 18 | 17 | 93 | 1019 | 14 | S/SE 7.4 | |
| Ieri h: 08:18 | Poco Nuvoloso | 19 | 17 | 88 | 1019 | 13 | SE 7.4 | |
| Ieri h: 07:55 | Nuvoloso | 18 | 17 | 93 | 1019 | 11 | S/SE 7.4 | |



